QTR773 OTHH-SBGR

Flight info

Callsign QTR773
Flight time N/A
Altitude 27000
Route DATRI L564 MIGMA/N0477F280 M550 MEVDO Y511 PMA V22 YEN L300 GIBEL/N0498F300 LXR M999 DITAR R778 TONBA DCT ILDOR/N0496F320 DCT DEMOX DCT BUNLU UR778 SABSI DCT DETAR DCT APRUN/N0493F320 DCT POLTO UL433 TYE DCT KIDNI/M083F340 DCT 02N005W/M083F360 03S010W 07S015W 0830S01730W 10S020W 1100S02230W 12S025W 1330S02730W 15S030W 1630S03230W 18S035W DCT VURIL UZ49 OBLAT/N0484F360 UZ49 MOLSU UN401 SIDUR/N0483F340 UZ10 ESORU/N0417F230 Z10 EDMUS
Aircraft B77L/H-SDE1E3FGHIJ5M1P2RWXYZ/LB1D1

Departure

Time N/A
Airport Hamad International Airport (OTHH)

Arrival

Time 2026-05-05 10:44
Airport São Paulo/Guarulhos–Governor André Franco Montoro International Airport (SBGR)
Time Latitude Longitude Altitude Speed Heading
2026-05-05 07:19 -11.61576 -24.03086 36015 ft 478 kts 249°
2026-05-05 07:20 -11.64082 -24.09371 36016 ft 478 kts 250°
2026-05-05 07:20 -11.66584 -24.15655 36012 ft 479 kts 250°
2026-05-05 07:21 -11.69088 -24.21944 36024 ft 478 kts 249°
2026-05-05 07:21 -11.71591 -24.28237 36021 ft 478 kts 250°
2026-05-05 07:22 -11.74091 -24.34529 36017 ft 479 kts 249°
2026-05-05 07:22 -11.76589 -24.40818 36018 ft 478 kts 250°
2026-05-05 07:23 -11.79088 -24.47115 36024 ft 478 kts 250°
2026-05-05 07:23 -11.81584 -24.53409 36021 ft 479 kts 250°
2026-05-05 07:24 -11.84078 -24.59703 36020 ft 479 kts 249°
2026-05-05 07:24 -11.86575 -24.66008 36024 ft 479 kts 250°
2026-05-05 07:25 -11.89070 -24.72314 36024 ft 479 kts 250°
2026-05-05 07:25 -11.91564 -24.78623 36026 ft 480 kts 250°
2026-05-05 07:26 -11.94059 -24.84939 36026 ft 480 kts 250°
2026-05-05 07:26 -11.96554 -24.91259 36031 ft 480 kts 250°
2026-05-05 07:27 -11.99049 -24.97583 36023 ft 480 kts 249°
2026-05-05 07:27 -12.02067 -25.03597 36027 ft 482 kts 240°
2026-05-05 07:28 -12.05636 -25.09402 36033 ft 483 kts 240°
2026-05-05 07:28 -12.09220 -25.15201 36027 ft 483 kts 240°
2026-05-05 07:29 -12.12777 -25.21020 36021 ft 483 kts 240°
2026-05-05 07:29 -12.16316 -25.26851 36029 ft 483 kts 240°
2026-05-05 07:30 -12.19851 -25.32686 36029 ft 483 kts 241°
2026-05-05 07:30 -12.25151 -25.41439 36038 ft 483 kts 240°
2026-05-05 07:31 -12.28684 -25.47277 36029 ft 482 kts 240°
2026-05-05 07:31 -12.32212 -25.53107 36024 ft 482 kts 240°
2026-05-05 07:32 -12.35734 -25.58933 36032 ft 481 kts 240°
2026-05-05 07:32 -12.39254 -25.64759 36038 ft 481 kts 241°
2026-05-05 07:33 -12.42769 -25.70581 36033 ft 481 kts 240°
2026-05-05 07:33 -12.46284 -25.76405 36035 ft 481 kts 240°
2026-05-05 07:34 -12.49799 -25.82234 36038 ft 481 kts 241°
2026-05-05 07:34 -12.53312 -25.88064 36044 ft 481 kts 241°
2026-05-05 07:35 -12.56826 -25.93898 36033 ft 481 kts 241°
2026-05-05 07:35 -12.60335 -25.99728 36038 ft 481 kts 240°
2026-05-05 07:36 -12.63798 -26.05484 36040 ft 481 kts 240°
2026-05-05 07:36 -12.67302 -26.11313 36040 ft 481 kts 241°
2026-05-05 07:37 -12.70802 -26.17140 36039 ft 481 kts 240°
2026-05-05 07:37 -12.74305 -26.22974 36042 ft 480 kts 240°
2026-05-05 07:38 -12.77804 -26.28806 36040 ft 480 kts 241°
2026-05-05 07:38 -12.81303 -26.34641 36047 ft 481 kts 241°
2026-05-05 07:39 -12.84799 -26.40476 36047 ft 481 kts 240°
2026-05-05 07:39 -12.88296 -26.46314 36034 ft 481 kts 241°
2026-05-05 07:40 -12.91792 -26.52156 36049 ft 480 kts 241°
2026-05-05 07:40 -12.95283 -26.57993 36046 ft 480 kts 240°
2026-05-05 07:41 -12.98773 -26.63832 36044 ft 480 kts 240°
2026-05-05 07:41 -13.02255 -26.69663 36051 ft 480 kts 241°
2026-05-05 07:42 -13.05745 -26.75509 36049 ft 480 kts 241°
2026-05-05 07:42 -13.09230 -26.81353 36039 ft 480 kts 241°
2026-05-05 07:43 -13.12715 -26.87199 36050 ft 480 kts 241°
2026-05-05 07:43 -13.16197 -26.93044 36053 ft 480 kts 241°
2026-05-05 07:44 -13.19677 -26.98889 36038 ft 480 kts 241°
2026-05-05 07:44 -13.23120 -27.04676 36034 ft 480 kts 241°
2026-05-05 07:45 -13.26593 -27.10519 36057 ft 479 kts 241°
2026-05-05 07:45 -13.30042 -27.16324 36056 ft 479 kts 241°
2026-05-05 07:46 -13.33510 -27.22166 36038 ft 479 kts 241°
2026-05-05 07:46 -13.36977 -27.28009 36045 ft 479 kts 241°
2026-05-05 07:47 -13.40441 -27.33851 36049 ft 479 kts 241°
2026-05-05 07:47 -13.43901 -27.39692 36049 ft 478 kts 241°
2026-05-05 07:48 -13.47356 -27.45528 36048 ft 478 kts 241°
2026-05-05 07:48 -13.50814 -27.51364 36042 ft 478 kts 241°
2026-05-05 07:49 -13.54336 -27.57166 36056 ft 478 kts 240°
2026-05-05 07:49 -13.57878 -27.62955 36047 ft 478 kts 240°
2026-05-05 07:50 -13.61413 -27.68750 36048 ft 479 kts 240°
2026-05-05 07:50 -13.64940 -27.74551 36066 ft 478 kts 240°
2026-05-05 07:51 -13.68465 -27.80359 36052 ft 479 kts 240°
2026-05-05 07:51 -13.71991 -27.86172 36045 ft 479 kts 240°
2026-05-05 07:52 -13.74921 -27.91004 36055 ft 479 kts 240°
2026-05-05 07:52 -13.78450 -27.96829 36055 ft 480 kts 240°
2026-05-05 07:53 -13.81939 -28.02591 36053 ft 480 kts 240°
2026-05-05 07:53 -13.85466 -28.08418 36053 ft 480 kts 240°
2026-05-05 07:54 -13.88993 -28.14252 36067 ft 480 kts 240°
2026-05-05 07:54 -13.92519 -28.20086 36059 ft 480 kts 240°
2026-05-05 07:55 -13.96042 -28.25920 36055 ft 479 kts 240°
2026-05-05 07:55 -13.99559 -28.31749 36063 ft 479 kts 240°
2026-05-05 07:56 -14.03070 -28.37572 36060 ft 479 kts 240°
2026-05-05 07:56 -14.06581 -28.43398 36058 ft 479 kts 240°
2026-05-05 07:57 -14.10089 -28.49224 36065 ft 478 kts 240°
2026-05-05 07:57 -14.13593 -28.55047 36066 ft 478 kts 240°
2026-05-05 07:58 -14.17096 -28.60873 36063 ft 478 kts 240°
2026-05-05 07:58 -14.20596 -28.66698 36066 ft 478 kts 240°
2026-05-05 07:59 -14.24093 -28.72521 36064 ft 478 kts 240°
2026-05-05 07:59 -14.27586 -28.78343 36065 ft 477 kts 240°
2026-05-05 08:00 -14.31077 -28.84165 36068 ft 477 kts 240°
2026-05-05 08:00 -14.34564 -28.89985 36069 ft 477 kts 240°
2026-05-05 08:01 -14.38050 -28.95807 36073 ft 477 kts 240°
2026-05-05 08:01 -14.41504 -29.01581 36074 ft 477 kts 240°
2026-05-05 08:02 -14.44986 -29.07404 36067 ft 477 kts 240°
2026-05-05 08:02 -14.48464 -29.13225 36067 ft 476 kts 240°
2026-05-05 08:03 -14.51938 -29.19045 36071 ft 476 kts 240°
2026-05-05 08:03 -14.55409 -29.24863 36069 ft 476 kts 240°
2026-05-05 08:04 -14.58878 -29.30682 36069 ft 476 kts 240°
2026-05-05 08:04 -14.62345 -29.36503 36072 ft 476 kts 241°
2026-05-05 08:05 -14.65811 -29.42325 36080 ft 476 kts 241°
2026-05-05 08:05 -14.69276 -29.48151 36072 ft 476 kts 241°
2026-05-05 08:06 -14.72737 -29.53974 36075 ft 476 kts 241°
2026-05-05 08:06 -14.76195 -29.59796 36073 ft 475 kts 241°
2026-05-05 08:07 -14.79650 -29.65617 36070 ft 475 kts 241°
2026-05-05 08:07 -14.83102 -29.71439 36070 ft 475 kts 241°
2026-05-05 08:08 -14.86550 -29.77257 36070 ft 475 kts 241°
2026-05-05 08:08 -14.89999 -29.83081 36083 ft 475 kts 241°
2026-05-05 08:09 -14.93450 -29.88906 36076 ft 475 kts 241°
2026-05-05 08:09 -14.96893 -29.94738 36077 ft 475 kts 241°
2026-05-05 08:10 -15.00286 -30.00479 36077 ft 475 kts 241°
2026-05-05 08:10 -15.03797 -30.06281 36076 ft 476 kts 240°
2026-05-05 08:11 -15.07340 -30.12060 36076 ft 476 kts 240°
2026-05-05 08:11 -15.10882 -30.17853 36077 ft 476 kts 240°
2026-05-05 08:12 -15.14411 -30.23648 36075 ft 476 kts 240°
2026-05-05 08:12 -15.17940 -30.29454 36077 ft 476 kts 240°
2026-05-05 08:13 -15.21466 -30.35259 36079 ft 476 kts 240°
2026-05-05 08:13 -15.24990 -30.41066 36082 ft 476 kts 240°
2026-05-05 08:14 -15.28509 -30.46866 36076 ft 476 kts 240°
2026-05-05 08:14 -15.32027 -30.52671 36076 ft 476 kts 241°
2026-05-05 08:15 -15.35541 -30.58473 36078 ft 475 kts 241°
2026-05-05 08:15 -15.39052 -30.64275 36082 ft 475 kts 241°
2026-05-05 08:16 -15.42562 -30.70080 36078 ft 475 kts 241°
2026-05-05 08:16 -15.46043 -30.75841 36077 ft 475 kts 241°
2026-05-05 08:17 -15.49545 -30.81640 36085 ft 474 kts 241°
2026-05-05 08:17 -15.53043 -30.87438 36080 ft 474 kts 241°
2026-05-05 08:18 -15.56539 -30.93237 36078 ft 474 kts 241°
2026-05-05 08:18 -15.60031 -30.99035 36079 ft 474 kts 241°
2026-05-05 08:19 -15.63490 -31.04781 36077 ft 474 kts 241°
2026-05-05 08:19 -15.66980 -31.10584 36086 ft 474 kts 241°
2026-05-05 08:20 -15.70470 -31.16391 36076 ft 474 kts 241°
2026-05-05 08:20 -15.73960 -31.22203 36075 ft 474 kts 241°
2026-05-05 08:21 -15.77444 -31.28009 36085 ft 474 kts 241°
2026-05-05 08:21 -15.80950 -31.33856 36084 ft 474 kts 241°
2026-05-05 08:22 -15.84429 -31.39663 36084 ft 473 kts 241°
2026-05-05 08:22 -15.87906 -31.45472 36098 ft 473 kts 241°
2026-05-05 08:23 -15.91358 -31.51243 36087 ft 473 kts 242°
2026-05-05 08:23 -15.94831 -31.57054 36083 ft 473 kts 242°
2026-05-05 08:24 -15.98303 -31.62869 36083 ft 473 kts 242°
2026-05-05 08:24 -16.01767 -31.68672 36084 ft 473 kts 242°
2026-05-05 08:25 -16.05232 -31.74484 36088 ft 473 kts 242°
2026-05-05 08:25 -16.08694 -31.80295 36093 ft 473 kts 242°
2026-05-05 08:26 -16.12156 -31.86112 36081 ft 473 kts 242°
2026-05-05 08:26 -16.15615 -31.91926 36085 ft 473 kts 242°
2026-05-05 08:27 -16.19071 -31.97741 36094 ft 473 kts 242°
2026-05-05 08:27 -16.22495 -32.03507 36090 ft 473 kts 242°
2026-05-05 08:28 -16.25947 -32.09326 36093 ft 473 kts 242°
2026-05-05 08:28 -16.29399 -32.15148 36096 ft 473 kts 242°
2026-05-05 08:29 -16.32848 -32.20970 36095 ft 472 kts 242°
2026-05-05 08:30 -16.38018 -32.29706 36089 ft 472 kts 242°
2026-05-05 08:30 -16.41460 -32.35528 36089 ft 472 kts 242°
2026-05-05 08:31 -16.44897 -32.41348 36088 ft 472 kts 242°
2026-05-05 08:31 -16.48331 -32.47168 36098 ft 471 kts 242°
2026-05-05 08:32 -16.51786 -32.52979 36089 ft 472 kts 241°
2026-05-05 08:32 -16.55312 -32.58745 36090 ft 472 kts 241°
2026-05-05 08:33 -16.58848 -32.64504 36096 ft 472 kts 241°
2026-05-05 08:33 -16.62372 -32.70269 36092 ft 471 kts 241°
2026-05-05 08:34 -16.65887 -32.76038 36096 ft 471 kts 241°
2026-05-05 08:34 -16.68801 -32.80828 36094 ft 471 kts 241°
2026-05-05 08:35 -16.72306 -32.86594 36093 ft 470 kts 241°
2026-05-05 08:35 -16.75808 -32.92359 36094 ft 470 kts 241°
2026-05-05 08:36 -16.79309 -32.98126 36095 ft 470 kts 241°
2026-05-05 08:36 -16.82773 -33.03837 36100 ft 470 kts 241°
2026-05-05 08:37 -16.86265 -33.09599 36095 ft 470 kts 241°
2026-05-05 08:37 -16.89752 -33.15358 36098 ft 469 kts 241°
2026-05-05 08:38 -16.93235 -33.21114 36101 ft 468 kts 241°
2026-05-05 08:38 -16.96709 -33.26861 36096 ft 467 kts 242°
2026-05-05 08:39 -17.00169 -33.32588 36101 ft 466 kts 242°
2026-05-05 08:39 -17.03629 -33.38321 36114 ft 466 kts 242°
2026-05-05 08:40 -17.07081 -33.44046 36100 ft 465 kts 242°
2026-05-05 08:40 -17.10526 -33.49763 36097 ft 464 kts 242°
2026-05-05 08:41 -17.13966 -33.55477 36100 ft 464 kts 242°
2026-05-05 08:41 -17.17398 -33.61184 36097 ft 463 kts 242°
2026-05-05 08:42 -17.20827 -33.66890 36101 ft 463 kts 242°
2026-05-05 08:42 -17.24253 -33.72595 36102 ft 463 kts 242°
2026-05-05 08:43 -17.27680 -33.78307 36108 ft 464 kts 242°
2026-05-05 08:43 -17.31106 -33.84021 36104 ft 463 kts 242°
2026-05-05 08:44 -17.34530 -33.89737 36105 ft 464 kts 242°
2026-05-05 08:44 -17.37954 -33.95458 36107 ft 464 kts 242°
2026-05-05 08:45 -17.41340 -34.01121 36104 ft 464 kts 242°
2026-05-05 08:45 -17.44760 -34.06845 36107 ft 464 kts 242°
2026-05-05 08:46 -17.48178 -34.12570 36117 ft 464 kts 242°
2026-05-05 08:46 -17.51576 -34.18267 36107 ft 464 kts 242°
2026-05-05 08:47 -17.55016 -34.24040 36108 ft 464 kts 242°
2026-05-05 08:47 -17.58406 -34.29734 36106 ft 464 kts 242°
2026-05-05 08:48 -17.61818 -34.35469 36109 ft 463 kts 242°
2026-05-05 08:48 -17.65225 -34.41201 36110 ft 463 kts 242°
2026-05-05 08:48 -17.66934 -34.44079 36228 ft 467 kts 242°
2026-05-05 08:49 -17.68646 -34.46963 36596 ft 465 kts 242°
2026-05-05 08:49 -17.70349 -34.49830 37103 ft 460 kts 242°
2026-05-05 08:49 -17.72032 -34.52662 37594 ft 456 kts 242°
2026-05-05 08:49 -17.73700 -34.55474 38025 ft 453 kts 242°
2026-05-05 08:50 -17.75368 -34.58291 38105 ft 458 kts 242°
2026-05-05 08:50 -17.78736 -34.63982 38104 ft 458 kts 242°
2026-05-05 08:51 -17.82074 -34.69618 38094 ft 452 kts 242°
2026-05-05 08:51 -17.85380 -34.75210 38108 ft 450 kts 242°
2026-05-05 08:52 -17.88677 -34.80793 38108 ft 450 kts 242°
2026-05-05 08:52 -17.91973 -34.86377 38122 ft 450 kts 242°
2026-05-05 08:53 -17.95271 -34.91970 38118 ft 451 kts 242°
2026-05-05 08:53 -17.98574 -34.97576 38115 ft 452 kts 242°
2026-05-05 08:54 -18.01885 -35.03108 38115 ft 453 kts 241°
2026-05-05 08:54 -18.05357 -35.08642 38112 ft 454 kts 240°
2026-05-05 08:55 -18.08843 -35.14171 38115 ft 454 kts 240°
2026-05-05 08:55 -18.12318 -35.19717 38116 ft 454 kts 241°
2026-05-05 08:56 -18.15783 -35.25272 38121 ft 454 kts 241°
2026-05-05 08:56 -18.19241 -35.30828 38114 ft 454 kts 241°
2026-05-05 08:57 -18.22696 -35.36381 38114 ft 454 kts 241°
2026-05-05 08:57 -18.26146 -35.41932 38114 ft 453 kts 241°
2026-05-05 08:58 -18.29592 -35.47480 38115 ft 453 kts 241°
2026-05-05 08:58 -18.33034 -35.53027 38111 ft 452 kts 241°
2026-05-05 08:59 -18.36475 -35.58575 38118 ft 452 kts 241°
2026-05-05 08:59 -18.39912 -35.64123 38117 ft 452 kts 241°
2026-05-05 09:00 -18.43346 -35.69672 38117 ft 452 kts 241°
2026-05-05 09:00 -18.46780 -35.75224 38121 ft 452 kts 241°
2026-05-05 09:01 -18.50212 -35.80779 38119 ft 453 kts 241°
2026-05-05 09:01 -18.53649 -35.86346 38133 ft 453 kts 241°
2026-05-05 09:02 -18.57088 -35.91923 38124 ft 454 kts 241°
2026-05-05 09:02 -18.60533 -35.97512 38123 ft 455 kts 241°
2026-05-05 09:03 -18.63949 -36.03060 38127 ft 455 kts 241°
2026-05-05 09:03 -18.67396 -36.08663 38126 ft 455 kts 241°
2026-05-05 09:04 -18.70842 -36.14270 38128 ft 456 kts 241°
2026-05-05 09:04 -18.74287 -36.19879 38150 ft 456 kts 241°
2026-05-05 09:05 -18.77731 -36.25492 38139 ft 455 kts 241°
2026-05-05 09:05 -18.81166 -36.31096 38128 ft 454 kts 241°
2026-05-05 09:06 -18.84591 -36.36688 38129 ft 453 kts 241°
2026-05-05 09:06 -18.88005 -36.42266 38125 ft 452 kts 241°
2026-05-05 09:07 -18.91412 -36.47840 38133 ft 451 kts 241°
2026-05-05 09:07 -18.94810 -36.53404 38136 ft 451 kts 241°
2026-05-05 09:08 -18.98202 -36.58964 38129 ft 450 kts 241°
2026-05-05 09:08 -19.01564 -36.64478 38135 ft 449 kts 242°
2026-05-05 09:09 -19.04946 -36.70030 38149 ft 449 kts 242°
2026-05-05 09:09 -19.08323 -36.75580 38138 ft 449 kts 241°
2026-05-05 09:10 -19.11700 -36.81135 38138 ft 449 kts 241°
2026-05-05 09:10 -19.14956 -36.86751 38141 ft 447 kts 244°
2026-05-05 09:11 -19.17978 -36.92484 38145 ft 446 kts 245°
2026-05-05 09:11 -19.20991 -36.98259 38140 ft 445 kts 245°
2026-05-05 09:12 -19.23936 -37.03879 38142 ft 444 kts 245°
2026-05-05 09:12 -19.26937 -37.09588 38144 ft 444 kts 245°
2026-05-05 09:13 -19.29937 -37.15293 38149 ft 443 kts 245°
2026-05-05 09:13 -19.32930 -37.20992 38166 ft 443 kts 245°
2026-05-05 09:14 -19.35919 -37.26689 38148 ft 442 kts 245°
2026-05-05 09:14 -19.38903 -37.32381 38150 ft 442 kts 245°
2026-05-05 09:15 -19.41882 -37.38069 38147 ft 441 kts 245°
2026-05-05 09:15 -19.44855 -37.43753 38150 ft 441 kts 245°
2026-05-05 09:16 -19.47824 -37.49435 38153 ft 441 kts 245°
2026-05-05 09:16 -19.50791 -37.55117 38169 ft 441 kts 245°
2026-05-05 09:17 -19.53756 -37.60801 38156 ft 441 kts 245°
2026-05-05 09:17 -19.56719 -37.66486 38156 ft 440 kts 245°
2026-05-05 09:18 -19.59677 -37.72168 38149 ft 440 kts 245°
2026-05-05 09:18 -19.62135 -37.76894 38157 ft 440 kts 245°
2026-05-05 09:19 -19.65089 -37.82576 38160 ft 440 kts 245°
2026-05-05 09:19 -19.68040 -37.88261 38150 ft 440 kts 245°
2026-05-05 09:20 -19.70991 -37.93951 38161 ft 440 kts 245°
2026-05-05 09:20 -19.73939 -37.99639 38156 ft 440 kts 245°
2026-05-05 09:21 -19.76857 -38.05276 38160 ft 440 kts 245°
2026-05-05 09:21 -19.79799 -38.10966 38162 ft 439 kts 245°
2026-05-05 09:22 -19.82739 -38.16655 38161 ft 439 kts 245°
2026-05-05 09:22 -19.85675 -38.22344 38165 ft 439 kts 244°
2026-05-05 09:23 -19.88609 -38.28034 38168 ft 439 kts 244°
2026-05-05 09:23 -19.91540 -38.33724 38170 ft 439 kts 244°
2026-05-05 09:24 -19.94469 -38.39416 38175 ft 439 kts 244°
2026-05-05 09:24 -19.97392 -38.45104 38166 ft 438 kts 244°
2026-05-05 09:25 -20.00313 -38.50789 38170 ft 438 kts 244°
2026-05-05 09:25 -20.03234 -38.56477 38172 ft 438 kts 244°
2026-05-05 09:26 -20.06156 -38.62170 38186 ft 439 kts 244°
2026-05-05 09:26 -20.09077 -38.67870 38170 ft 439 kts 244°
2026-05-05 09:27 -20.11996 -38.73571 38178 ft 439 kts 244°
2026-05-05 09:27 -20.14915 -38.79278 38176 ft 439 kts 244°
2026-05-05 09:28 -20.17832 -38.84989 38177 ft 439 kts 244°
2026-05-05 09:28 -20.20747 -38.90701 38181 ft 439 kts 244°
2026-05-05 09:29 -20.23662 -38.96418 38180 ft 439 kts 244°
2026-05-05 09:29 -20.26544 -39.02075 38182 ft 439 kts 244°
2026-05-05 09:30 -20.29454 -39.07795 38182 ft 439 kts 244°
2026-05-05 09:30 -20.32364 -39.13518 38185 ft 439 kts 244°
2026-05-05 09:31 -20.35251 -39.19204 38185 ft 439 kts 244°
2026-05-05 09:31 -20.38157 -39.24932 38185 ft 439 kts 244°
2026-05-05 09:32 -20.41060 -39.30660 38194 ft 439 kts 244°
2026-05-05 09:32 -20.43962 -39.36392 38190 ft 439 kts 244°
2026-05-05 09:33 -20.46859 -39.42121 38187 ft 439 kts 244°
2026-05-05 09:33 -20.49754 -39.47851 38188 ft 439 kts 244°
2026-05-05 09:34 -20.52644 -39.53577 38191 ft 439 kts 244°
2026-05-05 09:34 -20.55534 -39.59310 38185 ft 438 kts 244°
2026-05-05 09:35 -20.58421 -39.65040 38193 ft 438 kts 244°
2026-05-05 09:35 -20.62742 -39.73632 38191 ft 438 kts 244°
2026-05-05 09:36 -20.65620 -39.79359 38191 ft 437 kts 244°
2026-05-05 09:36 -20.68490 -39.85080 38195 ft 437 kts 244°
2026-05-05 09:37 -20.71357 -39.90799 38200 ft 436 kts 244°
2026-05-05 09:37 -20.74219 -39.96513 38193 ft 436 kts 244°
2026-05-05 09:38 -20.77050 -40.02172 38196 ft 436 kts 244°
2026-05-05 09:38 -20.79907 -40.07891 38193 ft 436 kts 244°
2026-05-05 09:39 -20.82765 -40.13615 38203 ft 437 kts 244°
2026-05-05 09:39 -20.85622 -40.19347 38203 ft 437 kts 244°
2026-05-05 09:40 -20.88464 -40.25095 38200 ft 437 kts 244°
2026-05-05 09:40 -20.91305 -40.30854 38218 ft 438 kts 244°
2026-05-05 09:41 -20.94136 -40.36585 38204 ft 439 kts 244°
2026-05-05 09:41 -20.97007 -40.42352 38203 ft 439 kts 244°
2026-05-05 09:42 -20.99881 -40.48122 38201 ft 439 kts 244°
2026-05-05 09:42 -21.02748 -40.53890 38215 ft 439 kts 244°
2026-05-05 09:43 -21.05614 -40.59665 38227 ft 439 kts 244°
2026-05-05 09:43 -21.08480 -40.65449 38221 ft 440 kts 244°
2026-05-05 09:44 -21.11344 -40.71234 38204 ft 440 kts 244°
2026-05-05 09:44 -21.14204 -40.77016 38216 ft 439 kts 244°
2026-05-05 09:45 -21.17053 -40.82793 38216 ft 438 kts 244°
2026-05-05 09:45 -21.19897 -40.88570 38212 ft 438 kts 244°
2026-05-05 09:46 -21.22735 -40.94343 38221 ft 438 kts 243°
2026-05-05 09:46 -21.25558 -41.00089 38214 ft 438 kts 243°
2026-05-05 09:47 -21.28382 -41.05845 38215 ft 438 kts 244°
2026-05-05 09:47 -21.31219 -41.11632 38215 ft 438 kts 244°
2026-05-05 09:48 -21.34059 -41.17413 38216 ft 438 kts 243°
2026-05-05 09:48 -21.36900 -41.23197 38230 ft 438 kts 243°
2026-05-05 09:49 -21.39742 -41.28989 38221 ft 439 kts 243°
2026-05-05 09:49 -21.42575 -41.34791 38216 ft 439 kts 244°
2026-05-05 09:50 -21.45392 -41.40611 38222 ft 439 kts 243°
2026-05-05 09:50 -21.48205 -41.46436 38222 ft 440 kts 243°
2026-05-05 09:51 -21.51018 -41.52264 38223 ft 440 kts 243°
2026-05-05 09:51 -21.53834 -41.58101 38220 ft 440 kts 243°
2026-05-05 09:52 -21.56657 -41.63936 38231 ft 440 kts 243°
2026-05-05 09:52 -21.59492 -41.69765 38229 ft 440 kts 243°
2026-05-05 09:53 -21.62326 -41.75599 38233 ft 440 kts 243°
2026-05-05 09:53 -21.65155 -41.81435 38228 ft 440 kts 243°
2026-05-05 09:54 -21.67980 -41.87273 38247 ft 440 kts 243°
2026-05-05 09:54 -21.70804 -41.93115 38239 ft 440 kts 243°
2026-05-05 09:55 -21.73626 -41.98957 38232 ft 440 kts 243°
2026-05-05 09:55 -21.76419 -42.04748 38244 ft 440 kts 243°
2026-05-05 09:56 -21.79234 -42.10591 38241 ft 440 kts 243°
2026-05-05 09:56 -21.82049 -42.16438 38246 ft 440 kts 243°
2026-05-05 09:57 -21.84850 -42.22293 38241 ft 440 kts 243°
2026-05-05 09:57 -21.87548 -42.28192 38253 ft 439 kts 244°
2026-05-05 09:58 -21.90226 -42.34113 38255 ft 440 kts 244°
2026-05-05 09:58 -21.92912 -42.40029 38259 ft 440 kts 244°
2026-05-05 09:59 -21.95603 -42.45942 38257 ft 439 kts 244°
2026-05-05 09:59 -21.98289 -42.51850 38270 ft 439 kts 244°
2026-05-05 10:00 -22.00522 -42.56768 38264 ft 439 kts 244°
2026-05-05 10:00 -22.03202 -42.62678 38261 ft 439 kts 244°
2026-05-05 10:01 -22.05876 -42.68581 38261 ft 438 kts 244°
2026-05-05 10:01 -22.08566 -42.74463 38267 ft 437 kts 243°
2026-05-05 10:02 -22.11274 -42.80331 38279 ft 437 kts 243°
2026-05-05 10:02 -22.13974 -42.86199 38271 ft 437 kts 243°
2026-05-05 10:03 -22.16667 -42.92068 38252 ft 436 kts 243°
2026-05-05 10:03 -22.19355 -42.97932 38259 ft 436 kts 243°
2026-05-05 10:04 -22.22016 -43.03745 38249 ft 436 kts 243°
2026-05-05 10:04 -22.24700 -43.09620 38267 ft 436 kts 243°
2026-05-05 10:05 -22.27383 -43.15492 38252 ft 436 kts 243°
2026-05-05 10:05 -22.30064 -43.21364 38246 ft 437 kts 243°
2026-05-05 10:06 -22.32750 -43.27258 38248 ft 437 kts 243°
2026-05-05 10:06 -22.35434 -43.33152 38231 ft 437 kts 243°
2026-05-05 10:07 -22.38117 -43.39054 38242 ft 437 kts 243°
2026-05-05 10:07 -22.40798 -43.44958 38233 ft 438 kts 243°
2026-05-05 10:08 -22.43477 -43.50864 38225 ft 438 kts 243°
2026-05-05 10:08 -22.46153 -43.56771 38238 ft 437 kts 243°
2026-05-05 10:09 -22.48824 -43.62674 38219 ft 437 kts 243°
2026-05-05 10:09 -22.51495 -43.68584 38225 ft 437 kts 243°
2026-05-05 10:10 -22.54164 -43.74497 38220 ft 437 kts 243°
2026-05-05 10:10 -22.56824 -43.80396 38219 ft 437 kts 243°
2026-05-05 10:11 -22.59488 -43.86312 38206 ft 437 kts 243°
2026-05-05 10:11 -22.62144 -43.92216 38218 ft 436 kts 243°
2026-05-05 10:12 -22.64798 -43.98123 38211 ft 436 kts 243°
2026-05-05 10:12 -22.67419 -44.03967 38211 ft 436 kts 243°
2026-05-05 10:13 -22.68751 -44.06937 37692 ft 444 kts 243°
2026-05-05 10:13 -22.70107 -44.09963 37026 ft 445 kts 243°
2026-05-05 10:13 -22.71455 -44.12975 36287 ft 444 kts 243°
2026-05-05 10:13 -22.72804 -44.15990 35523 ft 444 kts 243°
2026-05-05 10:14 -22.74148 -44.18993 34794 ft 443 kts 243°
2026-05-05 10:14 -22.75536 -44.21961 34200 ft 439 kts 240°
2026-05-05 10:14 -22.77121 -44.24737 33836 ft 430 kts 236°
2026-05-05 10:14 -22.78768 -44.27427 33468 ft 426 kts 236°
2026-05-05 10:15 -22.80415 -44.30117 33130 ft 431 kts 236°
2026-05-05 10:15 -22.82076 -44.32838 32795 ft 434 kts 236°
2026-05-05 10:15 -22.83735 -44.35568 32447 ft 433 kts 236°
2026-05-05 10:15 -22.85382 -44.38287 32117 ft 430 kts 236°
2026-05-05 10:16 -22.87018 -44.40995 31777 ft 428 kts 236°
2026-05-05 10:16 -22.88644 -44.43688 31446 ft 426 kts 236°
2026-05-05 10:16 -22.90261 -44.46370 31120 ft 424 kts 236°
2026-05-05 10:16 -22.91874 -44.49045 30784 ft 422 kts 236°
2026-05-05 10:17 -22.93475 -44.51702 30465 ft 420 kts 236°
2026-05-05 10:17 -22.95070 -44.54349 30127 ft 419 kts 236°
2026-05-05 10:17 -22.96662 -44.56993 29744 ft 418 kts 236°
2026-05-05 10:17 -22.98250 -44.59631 29410 ft 416 kts 236°
2026-05-05 10:18 -22.99826 -44.62251 29073 ft 414 kts 236°
2026-05-05 10:18 -23.01357 -44.64888 28743 ft 413 kts 239°
2026-05-05 10:18 -23.02622 -44.67680 28437 ft 412 kts 245°
2026-05-05 10:18 -23.03673 -44.70577 28125 ft 412 kts 249°
2026-05-05 10:19 -23.04479 -44.73553 27788 ft 411 kts 253°
2026-05-05 10:19 -23.05157 -44.76560 27490 ft 409 kts 254°
2026-05-05 10:19 -23.05815 -44.79564 27176 ft 408 kts 254°
2026-05-05 10:19 -23.06469 -44.82558 26858 ft 407 kts 254°
2026-05-05 10:20 -23.07125 -44.85541 26551 ft 406 kts 254°
2026-05-05 10:20 -23.07782 -44.88519 26247 ft 405 kts 254°
2026-05-05 10:20 -23.08440 -44.91483 25934 ft 404 kts 253°
2026-05-05 10:20 -23.09100 -44.94445 25631 ft 403 kts 253°
2026-05-05 10:21 -23.09760 -44.97399 25317 ft 402 kts 253°
2026-05-05 10:21 -23.10404 -45.00288 25033 ft 401 kts 253°
2026-05-05 10:21 -23.11061 -45.03231 24693 ft 400 kts 253°
2026-05-05 10:21 -23.11711 -45.06151 24387 ft 397 kts 253°
2026-05-05 10:22 -23.12360 -45.09066 24068 ft 396 kts 253°
2026-05-05 10:22 -23.13004 -45.11962 23755 ft 394 kts 253°
2026-05-05 10:22 -23.13646 -45.14848 23396 ft 391 kts 253°
2026-05-05 10:22 -23.14281 -45.17708 23078 ft 388 kts 253°
2026-05-05 10:23 -23.14910 -45.20545 22778 ft 385 kts 253°
2026-05-05 10:23 -23.15534 -45.23363 22475 ft 382 kts 254°
2026-05-05 10:23 -23.16153 -45.26159 22183 ft 380 kts 254°
2026-05-05 10:23 -23.16769 -45.28946 21884 ft 378 kts 254°
2026-05-05 10:24 -23.17383 -45.31722 21590 ft 377 kts 254°
2026-05-05 10:24 -23.17995 -45.34492 21307 ft 376 kts 254°
2026-05-05 10:24 -23.18604 -45.37254 21014 ft 376 kts 254°
2026-05-05 10:24 -23.19214 -45.40016 20728 ft 375 kts 254°
2026-05-05 10:25 -23.19829 -45.42769 20432 ft 375 kts 254°
2026-05-05 10:25 -23.20446 -45.45523 20135 ft 375 kts 254°
2026-05-05 10:25 -23.21061 -45.48273 19840 ft 374 kts 255°
2026-05-05 10:25 -23.21674 -45.51020 19555 ft 374 kts 255°
2026-05-05 10:26 -23.22284 -45.53764 19274 ft 373 kts 255°
2026-05-05 10:26 -23.22919 -45.56495 18987 ft 372 kts 253°
2026-05-05 10:26 -23.23640 -45.59193 18697 ft 371 kts 252°
2026-05-05 10:26 -23.24391 -45.61876 18399 ft 370 kts 252°
2026-05-05 10:27 -23.25144 -45.64547 18093 ft 369 kts 252°
2026-05-05 10:27 -23.25889 -45.67207 17777 ft 367 kts 252°
2026-05-05 10:27 -23.26625 -45.69849 17495 ft 365 kts 252°
2026-05-05 10:27 -23.27354 -45.72480 17214 ft 363 kts 252°
2026-05-05 10:28 -23.28070 -45.75071 16938 ft 361 kts 252°
2026-05-05 10:28 -23.28798 -45.77716 16662 ft 360 kts 252°
2026-05-05 10:28 -23.29503 -45.80283 16388 ft 358 kts 252°
2026-05-05 10:28 -23.30216 -45.82875 16113 ft 357 kts 252°
2026-05-05 10:29 -23.30926 -45.85457 15822 ft 356 kts 252°
2026-05-05 10:29 -23.31635 -45.88038 15553 ft 355 kts 252°
2026-05-05 10:29 -23.32340 -45.90608 15284 ft 354 kts 252°
2026-05-05 10:29 -23.33052 -45.93159 15104 ft 351 kts 251°
2026-05-05 10:30 -23.33769 -45.95686 14881 ft 348 kts 251°
2026-05-05 10:30 -23.34482 -45.98193 14703 ft 346 kts 251°
2026-05-05 10:30 -23.35181 -46.00650 14532 ft 349 kts 251°
2026-05-05 10:30 -23.35901 -46.03186 14370 ft 353 kts 251°
2026-05-05 10:31 -23.36624 -46.05738 14196 ft 353 kts 251°
2026-05-05 10:31 -23.37343 -46.08284 14024 ft 351 kts 251°
2026-05-05 10:31 -23.38059 -46.10820 13820 ft 350 kts 251°
2026-05-05 10:31 -23.38772 -46.13347 13646 ft 348 kts 251°
2026-05-05 10:32 -23.39482 -46.15864 13477 ft 347 kts 251°
2026-05-05 10:32 -23.40186 -46.18367 13308 ft 345 kts 251°
2026-05-05 10:32 -23.40889 -46.20861 13134 ft 344 kts 251°
2026-05-05 10:32 -23.41588 -46.23345 12975 ft 342 kts 252°
2026-05-05 10:33 -23.42284 -46.25818 12805 ft 341 kts 252°
2026-05-05 10:33 -23.42935 -46.28288 12624 ft 336 kts 258°
2026-05-05 10:33 -23.42912 -46.30839 12468 ft 342 kts 280°
2026-05-05 10:33 -23.42062 -46.33272 12314 ft 348 kts 299°
2026-05-05 10:34 -23.40733 -46.35476 12143 ft 348 kts 303°
2026-05-05 10:34 -23.39365 -46.37650 11975 ft 347 kts 303°
2026-05-05 10:34 -23.38017 -46.39826 11795 ft 346 kts 302°
2026-05-05 10:34 -23.36691 -46.42003 11634 ft 344 kts 302°
2026-05-05 10:35 -23.35416 -46.44109 11428 ft 320 kts 300°
2026-05-05 10:35 -23.34571 -46.46229 10911 ft 297 kts 278°
2026-05-05 10:35 -23.34480 -46.48419 10187 ft 286 kts 268°
2026-05-05 10:35 -23.34497 -46.50564 9318 ft 282 kts 268°
2026-05-05 10:36 -23.34516 -46.52689 8454 ft 279 kts 268°
2026-05-05 10:36 -23.34542 -46.54794 7670 ft 281 kts 268°
2026-05-05 10:36 -23.34577 -46.56923 7292 ft 280 kts 268°
2026-05-05 10:36 -23.34619 -46.59015 7020 ft 274 kts 268°
2026-05-05 10:37 -23.34666 -46.61070 6705 ft 270 kts 268°
2026-05-05 10:37 -23.34869 -46.63054 6463 ft 262 kts 251°
2026-05-05 10:37 -23.35710 -46.64818 6349 ft 267 kts 232°
2026-05-05 10:37 -23.37079 -46.66142 6238 ft 260 kts 216°
2026-05-05 10:38 -23.38524 -46.67250 6217 ft 247 kts 217°
2026-05-05 10:38 -23.39884 -46.68310 6178 ft 233 kts 217°
2026-05-05 10:38 -23.41254 -46.69110 6122 ft 222 kts 192°
2026-05-05 10:38 -23.42780 -46.69024 6140 ft 222 kts 161°
2026-05-05 10:39 -23.44085 -46.68200 6120 ft 215 kts 138°
2026-05-05 10:39 -23.45040 -46.66944 5808 ft 214 kts 125°
2026-05-05 10:39 -23.45856 -46.65612 5513 ft 209 kts 123°
2026-05-05 10:39 -23.46643 -46.64320 5282 ft 200 kts 123°
2026-05-05 10:40 -23.47239 -46.63017 5004 ft 183 kts 96°
2026-05-05 10:40 -23.47170 -46.61665 4870 ft 182 kts 79°
2026-05-05 10:40 -23.46955 -46.60297 4604 ft 181 kts 77°
2026-05-05 10:40 -23.46679 -46.58986 4362 ft 175 kts 72°
2026-05-05 10:41 -23.46344 -46.57744 4136 ft 165 kts 71°
2026-05-05 10:41 -23.46031 -46.56597 3944 ft 153 kts 71°
2026-05-05 10:41 -23.45728 -46.55488 3822 ft 153 kts 71°
2026-05-05 10:41 -23.45426 -46.54380 3608 ft 152 kts 71°
2026-05-05 10:42 -23.44924 -46.52536 3280 ft 150 kts 71°
2026-05-05 10:42 -23.44538 -46.51114 2993 ft 145 kts 73°
2026-05-05 10:42 -23.44346 -46.50411 2857 ft 143 kts 73°
2026-05-05 10:43 -23.44067 -46.49387 2673 ft 143 kts 73°
2026-05-05 10:43 -23.43780 -46.48335 2480 ft 141 kts 73°
2026-05-05 10:43 -23.43535 -46.47421 2472 ft 108 kts 73°
2026-05-05 10:43 -23.43371 -46.46818 2472 ft 68 kts 74°
2026-05-05 10:44 -23.43247 -46.46399 2474 ft 41 kts 58°
2026-05-05 10:44 -23.43060 -46.46196 2472 ft 37 kts 43°
2026-05-05 10:44 -23.42892 -46.46156 2472 ft 26 kts 341°
2026-05-05 10:44 -23.42725 -46.46210 2471 ft 23 kts 344°
2026-05-05 10:45 -23.42641 -46.46237 2474 ft 5 kts 344°
2026-05-05 10:45 -23.42620 -46.46269 2467 ft 6 kts 276°
2026-05-05 10:45 -23.42626 -46.46316 2471 ft 8 kts 257°
2026-05-05 10:45 -23.42643 -46.46389 2469 ft 10 kts 254°
2026-05-05 10:46 -23.42665 -46.46465 2471 ft 11 kts 253°
2026-05-05 10:46 -23.42687 -46.46542 2468 ft 11 kts 253°
2026-05-05 10:46 -23.42708 -46.46618 2471 ft 11 kts 254°
2026-05-05 10:46 -23.42728 -46.46695 2470 ft 11 kts 253°
2026-05-05 10:47 -23.42749 -46.46772 2471 ft 11 kts 253°
2026-05-05 10:47 -23.42771 -46.46853 2470 ft 12 kts 254°
2026-05-05 10:47 -23.42793 -46.46939 2478 ft 12 kts 254°
2026-05-05 10:47 -23.42818 -46.47029 2474 ft 13 kts 253°
2026-05-05 10:48 -23.42843 -46.47122 2474 ft 13 kts 253°
2026-05-05 10:48 -23.42870 -46.47220 2471 ft 14 kts 253°
2026-05-05 10:48 -23.42898 -46.47326 2470 ft 14 kts 253°
2026-05-05 10:48 -23.42924 -46.47422 2474 ft 9 kts 253°
2026-05-05 10:49 -23.42900 -46.47479 2472 ft 9 kts 327°
2026-05-05 10:49 -23.42872 -46.47492 2472 ft 2 kts 341°
2026-05-05 10:49 -23.42826 -46.47509 2473 ft 9 kts 342°
2026-05-05 10:49 -23.42763 -46.47529 2471 ft 9 kts 343°
2026-05-05 10:50 -23.42700 -46.47549 2471 ft 9 kts 343°
2026-05-05 10:50 -23.42637 -46.47570 2474 ft 9 kts 343°
2026-05-05 10:50 -23.42584 -46.47585 2471 ft 6 kts 353°
2026-05-05 10:50 -23.42552 -46.47559 2475 ft 6 kts 66°
2026-05-05 10:51 -23.42542 -46.47517 2469 ft 4 kts 76°
2026-05-05 10:51 -23.42539 -46.47502 2469 ft 1 kts 75°